Location: Morse Shores
(26.6809°N, 81.7976°W)
Time: 06:43:13
(UTC+00:00)

Daily predictions for brighter satellites

Satellite Brightness Start Highest point End
(mag) Time Altitude Azimuth Time Altitude Azimuth Time Altitude Azimuth
Cosmos 1844 4.4 23:12:28 10° SSW 23:18:01 60° WNW 23:23:42 10° N
Envisat 3.3 23:15:52 10° SE 23:20:38 43° ENE 23:25:25 10° N
OAO 3 Rocket 4.4 23:18:00 10° WNW 23:22:30 35° N 23:27:03 10° ENE
Meteor 1-21 Rocket 4.3 23:22:13 10° N 23:28:01 65° E 23:33:40 10° SSE
Cosmos 1726 2.2 23:27:32 10° S 23:31:06 51° E 23:34:39 10° NNE
Hubble Space Telescope 3.7 23:31:03 10° SW 23:32:05 11° SSW 23:33:06 10° SSW
Cosmos 1626 3.4 23:31:22 10° NNW 23:34:55 46° W 23:38:28 10° SSW
COSMO-SKYMED 1 2.9 23:31:40 10° N 23:36:00 73° WNW 23:40:18 10° SSW
CZ-4C R/B 3.1 23:30:05 10° NNW 23:37:49 66° ENE 23:46:11 10° SE
Cosmos 1271 Rocket 2.8 23:34:08 10° N 23:38:03 59° E 23:42:00 10° SSE
NOAA 12 4.2 23:33:44 10° SSE 23:38:59 86° WSW 23:44:16 10° NNW
USA 116 3.2 23:36:25 10° NNE 23:39:40 71° ESE 23:43:13 10° S
CSL-04 Rocket 4.1 23:34:50 10° SE 23:39:56 39° ENE 23:45:02 10° N
H-2A R/B 4.3 23:37:15 10° S 23:40:52 40° W 23:44:33 10° NNW
SL-4 R/B 3.6 23:40:18 10° N 23:42:15 14° NE 23:43:16 13° NE
BREEZE-M DEB (TANK) 4.3 23:40:55 10° S 23:43:33 25° ESE 23:48:23 11° ENE
Cosmos 1825 Rocket 3.9 23:41:23 10° N 23:45:45 72° W 23:50:08 10° S
Cosmos 2239 Rocket 4.4 23:39:54 10° N 23:46:03 78° E 23:52:10 10° S
Cosmos 1953 Rocket 3.4 23:43:29 10° N 23:47:50 74° E 23:52:07 10° S
ASTEX 1 3.6 23:44:38 10° N 23:49:35 79° W 23:54:34 10° S
Cosmos 1242 Rocket 3.1 23:46:31 10° NNE 23:49:55 35° E 23:53:17 10° SSE
Cosmos 1727 Rocket 4.5 23:44:35 10° SSE 23:50:06 35° E 23:55:36 10° NNE
Cosmos 1821 Rocket 4.1 23:46:59 10° N 23:53:07 79° W 23:59:17 10° S
Cosmos 1605 Rocket 4.4 23:47:49 10° NNE 23:53:24 36° E 23:58:55 10° SE
